2024-128G

Last updated on Fri Aug 09 2024 00:02:03 GMT+0000 (Coordinated Universal Time)

1 60241U 24128G 24221.58550394 .00007595 00000+0 66787-3 0 9992 2 60241 61.9945 58.7914 0011627 307.3183 52.6845 14.97235949 4451
UTC large
Height (km)
Speed (km/s)
/
Latitude / Longitude
Inclination (degrees)
Orbital Period (minutes)
Azimuth
Elevation
Range (km)
Doppler Factor

Next 0 passes for location: London (51.5072 / 0.1276)

Sorry there are no passes over London.